{"data":{"norad_id":54878,"epoch":"2026-05-22T05:30:41.141376Z","epoch_age_seconds":314086,"freshness":"STALE","line1":"1 54878U 22178A   26142.22964284  .00000778  00000+0  00000+0 0  9994","line2":"2 54878  64.0309 323.6209 6942037 267.9971  18.1119  2.00663671 16035","mean_motion":2.00663671,"eccentricity":0.6942037,"inclination_deg":64.0309,"raan_deg":323.6209,"arg_perigee_deg":267.9971,"mean_anomaly_deg":18.1119,"bstar":0,"rev_number":1603,"period_min":717.61868644375,"perigee_km":1741.2186591315,"apogee_km":38605.541348353,"semimajor_km":26551.517003742,"source":"CELESTRAK","updated_at":"2026-05-25T13:37:58.807813Z"}}